Weather History for Tracy, MN

Change the Weather History Date:

Thursday, July 18, 2013

  Actual Average (KMML) Record (KMML)
Temperature  
Mean Temperature 84 °F -  
Max Temperature 92 °F 84 °F 100 °F (1974)
Min Temperature 77 °F 64 °F 51 °F (2000)
Cooling Degree Days 19    
Growing Degree Days 34 (Base 50)    
Moisture  
Dew Point 67 °F    
Average Humidity 58    
Maximum Humidity 74    
Minimum Humidity 43    
Precipitation  
Precipitation 0.00 in - - ()
Sea Level Pressure  
Sea Level Pressure 29.98 in    
Wind  
Wind Speed 11 mph (SW)    
Max Wind Speed 23 mph    
Max Gust Speed 32 mph    
Visibility 10 miles    
Events      
Averages and records for this station are not official NWS values.
T = Trace of Precipitation, MM = Missing Value Source: NWS Daily Summary

Daily Weather History Graph

Daily Weather History Graph

Search for Another Location

Airport:

Trip Planner

Search our weather history database for the weather conditions in past years. The results will help you decide how hot, cold, wet, or windy it might be!

Date:

Astronomy

Jul. 18, 2013 Rise Set
Actual Time 5:55 AM CDT 9:01 PM CDT
Civil Twilight 5:20 AM CDT 9:35 PM CDT
Nautical Twilight 4:36 AM CDT 10:20 PM CDT
Astronomical Twilight 3:42 AM CDT 11:13 PM CDT
Moon 4:58 PM CDT (7/18) 1:49 AM CDT (7/18)
Length of Visible Light 16h 15m
Length of Day
15h 05m
Waxing Gibbous, 77% of the Moon is Illuminated
Jul 18
Waxing Gibbous
Jul 22
Full
Jul 29
Last Quarter
Aug 6
New
Aug 14
First Quarter

Hourly Weather History & Observations

Time (CDT) Temp. Heat Index Dew Point Humidity Pressure Visibility Wind Dir Wind Speed Gust Speed Precip Events Conditions
12:14 AM 77.2 °F - 67.5 °F 72% 30.14 in 10.0 mi Calm Calm - N/A   Clear
12:34 AM 77.0 °F - 67.5 °F 72% 30.14 in 10.0 mi Calm Calm - N/A   Clear
12:53 AM 77.7 °F - 67.5 °F 71% 30.13 in 10.0 mi SSW 8.1 mph - N/A   Clear
1:14 AM 77.9 °F - 67.5 °F 70% 30.13 in 10.0 mi SSW 10.4 mph - N/A   Clear
1:34 AM 77.9 °F - 67.3 °F 70% 30.13 in 10.0 mi Calm Calm - N/A   Clear
1:54 AM 77.4 °F - 67.3 °F 71% 30.12 in 10.0 mi Calm Calm - N/A   Clear
2:13 AM 77.0 °F - 67.3 °F 72% 30.12 in 10.0 mi Calm Calm - N/A   Clear
2:34 AM 77.0 °F - 67.3 °F 72% 30.12 in 10.0 mi SSW 11.5 mph - N/A   Clear
2:54 AM 77.9 °F - 67.3 °F 70% 30.11 in 10.0 mi SSW 10.4 mph - N/A   Clear
3:13 AM 77.5 °F - 67.3 °F 71% 30.11 in 10.0 mi SSW 10.4 mph 16.1 mph N/A   Clear
3:33 AM 77.9 °F - 67.8 °F 71% 30.10 in 10.0 mi SSW 12.7 mph - N/A   Clear
3:53 AM 77.9 °F - 68.0 °F 71% 30.09 in 10.0 mi SSW 12.7 mph - N/A   Clear
4:14 AM 77.9 °F - 68.4 °F 72% 30.08 in 10.0 mi SSW 10.4 mph 16.1 mph N/A   Clear
4:33 AM 77.2 °F - 68.4 °F 74% 30.08 in 10.0 mi SSW 11.5 mph - N/A   Clear
4:54 AM 77.2 °F - 68.2 °F 74% 30.07 in 10.0 mi Calm Calm - N/A   Clear
5:14 AM 77.0 °F - 68.0 °F 74% 30.07 in 10.0 mi SSW 11.5 mph 16.1 mph N/A   Clear
5:34 AM 77.0 °F - 68.0 °F 74% 30.07 in 10.0 mi SSW 12.7 mph 18.4 mph N/A   Clear
5:54 AM 77.2 °F - 67.5 °F 72% 30.07 in 10.0 mi SSW 13.8 mph - N/A   Scattered Clouds
6:14 AM 77.4 °F - 67.1 °F 71% 30.06 in 10.0 mi SSW 12.7 mph 19.6 mph N/A   Scattered Clouds
6:34 AM 77.4 °F - 67.1 °F 71% 30.06 in 10.0 mi SSW 11.5 mph 20.7 mph N/A   Clear
6:54 AM 77.4 °F - 67.1 °F 71% 30.06 in 10.0 mi SW 13.8 mph 19.6 mph N/A   Clear
7:14 AM 77.5 °F - 67.3 °F 71% 30.05 in 10.0 mi SSW 13.8 mph 19.6 mph N/A   Clear
7:34 AM 78.1 °F - 67.5 °F 70% 30.05 in 10.0 mi SSW 15.0 mph 19.6 mph N/A   Clear
7:54 AM 78.8 °F - 67.5 °F 68% 30.04 in 10.0 mi SW 13.8 mph 19.6 mph N/A   Clear
8:14 AM 79.7 °F - 67.6 °F 66% 30.04 in 10.0 mi SW 15.0 mph 19.6 mph N/A   Clear
8:33 AM 80.6 °F 83.2 °F 67.8 °F 65% 30.04 in 10.0 mi SW 13.8 mph 19.6 mph N/A   Clear
8:54 AM 81.5 °F 84.2 °F 68.0 °F 63% 30.04 in 10.0 mi SW 12.7 mph 19.6 mph N/A   Clear
9:14 AM 82.6 °F 85.3 °F 67.6 °F 60% 30.03 in 10.0 mi SW 12.7 mph - N/A   Clear
9:33 AM 83.5 °F 86.0 °F 66.9 °F 57% 30.02 in 10.0 mi SW 16.1 mph 20.7 mph N/A   Clear
9:53 AM 84.4 °F 87.3 °F 67.6 °F 57% 30.02 in 10.0 mi SW 12.7 mph 24.2 mph N/A   Clear
10:14 AM 85.1 °F 87.9 °F 67.3 °F 55% 30.02 in 10.0 mi SW 16.1 mph 21.9 mph N/A   Clear
10:34 AM 85.1 °F 87.7 °F 66.7 °F 54% 30.01 in 10.0 mi SW 15.0 mph 21.9 mph N/A   Clear
10:54 AM 85.8 °F 88.5 °F 66.7 °F 53% 30.01 in 10.0 mi SW 13.8 mph - N/A   Clear
11:14 AM 87.1 °F 90.6 °F 68.2 °F 53% 30.00 in 10.0 mi SW 16.1 mph 20.7 mph N/A   Clear
11:34 AM 87.4 °F 90.8 °F 67.8 °F 52% 30.00 in 10.0 mi SW 13.8 mph 24.2 mph N/A   Clear
11:54 AM 87.8 °F 90.4 °F 66.2 °F 49% 29.99 in 10.0 mi SW 17.3 mph 26.5 mph N/A   Clear
12:14 PM 88.7 °F 91.1 °F 65.8 °F 47% 29.99 in 10.0 mi SW 19.6 mph 24.2 mph N/A   Clear
12:34 PM 89.1 °F 90.6 °F 64.6 °F 44% 29.98 in 10.0 mi SW 18.4 mph 27.6 mph N/A   Clear
12:54 PM 89.6 °F 91.1 °F 64.6 °F 43% 29.97 in 10.0 mi SW 13.8 mph 24.2 mph N/A   Clear
1:14 PM 89.6 °F 91.1 °F 64.6 °F 43% 29.97 in 10.0 mi SW 19.6 mph 26.5 mph N/A   Clear
1:34 PM 90.3 °F 93.0 °F 66.6 °F 45% 29.96 in 10.0 mi SW 19.6 mph 26.5 mph N/A   Clear
1:54 PM 90.3 °F 92.6 °F 65.8 °F 44% 29.96 in 10.0 mi SW 17.3 mph 32.2 mph N/A   Clear
2:14 PM 90.7 °F 93.6 °F 66.9 °F 45% 29.95 in 10.0 mi SW 17.3 mph 24.2 mph N/A   Clear
2:34 PM 91.0 °F 94.7 °F 67.8 °F 46% 29.94 in 10.0 mi SSW 19.6 mph 24.2 mph N/A   Clear
2:54 PM 91.0 °F 94.3 °F 67.1 °F 45% 29.94 in 10.0 mi SSW 20.7 mph 26.5 mph N/A   Clear
3:14 PM 91.2 °F 94.6 °F 66.9 °F 45% 29.93 in 10.0 mi SW 20.7 mph 28.8 mph N/A   Clear
3:34 PM 91.4 °F 94.9 °F 67.1 °F 45% 29.92 in 10.0 mi SW 17.3 mph 26.5 mph N/A   Clear
3:54 PM 91.4 °F 94.5 °F 66.9 °F 44% 29.92 in 10.0 mi SW 16.1 mph 26.5 mph N/A   Clear
4:14 PM 91.6 °F 95.2 °F 67.5 °F 45% 29.91 in 10.0 mi SW 17.3 mph 21.9 mph N/A   Clear
4:33 PM 91.4 °F 94.5 °F 66.7 °F 44% 29.90 in 10.0 mi SW 16.1 mph 25.3 mph N/A   Clear
4:53 PM 91.4 °F 94.5 °F 66.9 °F 44% 29.89 in 10.0 mi SW 15.0 mph 29.9 mph N/A   Clear
5:14 PM 91.2 °F 93.7 °F 66.0 °F 43% 29.88 in 10.0 mi SW 17.3 mph 28.8 mph N/A   Clear
5:34 PM 90.9 °F 94.0 °F 66.7 °F 45% 29.88 in 10.0 mi SW 23.0 mph 28.8 mph N/A   Clear
5:53 PM 90.7 °F 93.6 °F 66.4 °F 45% 29.87 in 10.0 mi SW 19.6 mph 25.3 mph N/A   Clear
6:14 PM 90.5 °F 93.8 °F 66.9 °F 46% 29.86 in 10.0 mi SW 17.3 mph 28.8 mph N/A   Clear
6:33 PM 90.1 °F 93.1 °F 67.1 °F 46% 29.86 in 10.0 mi SW 17.3 mph 25.3 mph N/A   Clear
6:54 PM 89.8 °F 93.3 °F 67.5 °F 48% 29.85 in 10.0 mi SW 16.1 mph 23.0 mph N/A   Clear
7:14 PM 89.6 °F 93.0 °F 67.3 °F 48% 29.85 in 10.0 mi SW 15.0 mph 25.3 mph N/A   Clear
7:34 PM 88.9 °F 92.6 °F 68.0 °F 50% 29.84 in 10.0 mi SSW 17.3 mph 21.9 mph N/A   Clear
7:54 PM 88.2 °F 91.7 °F 68.0 °F 51% 29.84 in 10.0 mi SW 16.1 mph - N/A   Clear
8:14 PM 87.1 °F 91.3 °F 68.9 °F 55% 29.83 in 10.0 mi SSW 17.3 mph 20.7 mph N/A   Clear
8:34 PM 86.2 °F 89.7 °F 68.5 °F 55% 29.83 in 10.0 mi Calm Calm - N/A   Clear
8:54 PM 85.5 °F 88.8 °F 68.4 °F 56% 29.83 in 10.0 mi SW 15.0 mph 20.7 mph N/A   Clear
9:14 PM 85.1 °F 88.2 °F 68.0 °F 56% 29.82 in 10.0 mi SW 13.8 mph - N/A   Clear
9:34 PM 84.2 °F 87.3 °F 68.0 °F 58% 29.82 in 10.0 mi SW 15.0 mph - N/A   Clear
9:54 PM 83.7 °F 86.7 °F 68.0 °F 59% 29.83 in 10.0 mi SSW 15.0 mph 23.0 mph N/A   Clear
10:14 PM 83.3 °F 86.2 °F 67.6 °F 59% 29.83 in 10.0 mi SSW 17.3 mph 21.9 mph N/A   Clear
10:34 PM 83.3 °F 86.2 °F 67.8 °F 59% 29.83 in 10.0 mi SW 15.0 mph 20.7 mph N/A   Clear
10:54 PM 82.8 °F 85.8 °F 68.0 °F 61% 29.83 in 10.0 mi SW 17.3 mph 21.9 mph N/A   Clear
11:14 PM 82.8 °F 85.5 °F 67.6 °F 60% 29.82 in 10.0 mi SW 18.4 mph 21.9 mph N/A   Clear
11:34 PM 82.6 °F 85.5 °F 68.0 °F 61% 29.83 in 10.0 mi SW 16.1 mph 21.9 mph N/A   Clear
11:54 PM 82.4 °F 85.4 °F 68.2 °F 62% 29.83 in 10.0 mi SW 17.3 mph 21.9 mph N/A   Mostly Cloudy